Location: *
(44.3925°N, 5.4708°E)
Time: 03:27:51
(UTC+00:00)

YAOGAN 6 - Pass Details

Date: 18 September 2019
Orbit: 466 x 505 km, 97.0° (Epoch: 17 October)

Event Time Altitude Azimuth Distance (km) Brightness Sun altitude
Rises 18:08:56 0° 174° (S) 2,561 6.1 -5.3°
Reaches altitude 10° 18:10:59 10° 177° (S) 1,690 5.2 -5.7°
Maximum altitude 18:14:37 64° 260° (W) 558 3.2 -6.3°
Drops below altitude 10° 18:18:18 10° 342° (NNW) 1,722 5.7 -6.9°
Sets 18:20:25 0° 346° (NNW) 2,614 6.6 -7.3°
